Flag for Tajikistan Weather past 2 weeks in Dushanbe, Tajikistan

Now
59 °F

Dense fog.


Feels Like: 58 °F
Forecast: 51 / 70 °F
Wind: 8 mph from West

Location: Dushanbe Airport

Current Time: Oct 23, 2014 at 9:12:00 AM

Latest Report: Oct 23, 2014 at 8:30 AM


Visibility: 1 mi

Pressure: 30.12 "Hg

Humidity: 63%

Dew point: 46 °F

Location of DushanbeLocation

Historic Weather in Dushanbe — Graph

°F

Dushanbe temperature yesterday

Maximum temperature yesterday: 86 °F (at 2:00 PM)
Minimum temperature yesterday: 54 °F (at 3:30 AM)
Average temperature yesterday: 69 °F

Past Weeks' High & Low Weather Summary

 TemperatureHumidityPressure
High86 °F (Oct 22, 2:00 PM)100% (Oct 10, 3:30 AM)30.45 "Hg (Oct 10, 3:30 AM)
Low43 °F (Oct 10, 5:30 AM)13% (Oct 22, 2:30 PM)29.89 "Hg (Oct 22, 3:30 PM)
Average59 °F59%30.12 "Hg
* Reported Oct 8 7:00 AM — Oct 23 7:30 AM, Dushanbe, Weather by CustomWeather, © 2014

Note: Actual official high and low records may vary slightly from our data, if they occured in-between our weather recording intervals... More about our weather records

Advertising

Dushanbe weather history for previous 24 hours

 ConditionsComfort  
Time TempWeatherWind HumidityBarometerVisibility
7:30 AM
Oct 23
59 °FDense fog.6 mph59%30.04 "Hg1 mi
7:00 AM59 °FDense fog.10 mph59%30.04 "Hg1 mi
6:30 AM59 °FDense fog.10 mph59%30.01 "Hg1 mi
6:00 AM59 °FDense fog.13 mph59%29.98 "Hg1 mi
5:30 AM63 °FDense fog.10 mph49%29.98 "Hg1 mi
5:00 AM61 °FPartly cloudy.1 mph48%29.95 "HgN/A
4:30 AM61 °FPartly cloudy.1 mph52%29.92 "Hg5 mi
4:00 AM64 °FPartly cloudy.1 mph43%29.92 "HgN/A
3:30 AM64 °FMostly cloudy.3 mph40%29.92 "HgN/A
3:00 AM66 °FMostly cloudy.6 mph35%29.95 "HgN/A
2:30 AM70 °FMostly cloudy.6 mph31%29.95 "HgN/A
2:00 AM66 °FMostly cloudy.3 mph37%29.95 "HgN/A
1:30 AM68 °FMostly cloudy.8 mph35%29.92 "HgN/A
1:00 AM64 °FMostly cloudy.3 mph43%29.95 "HgN/A
12:30 AM64 °FPartly cloudy.No wind43%29.89 "HgN/A
12:00 AM63 °FPassing clouds.No wind42%29.89 "HgN/A
11:30 PM
Oct 22
61 °FPassing clouds.No wind48%29.89 "HgN/A
11:00 PM63 °FPassing clouds.1 mph42%29.89 "HgN/A
10:30 PM63 °FPassing clouds.1 mph42%29.89 "HgN/A
10:00 PM68 °FPassing clouds.3 mph33%29.89 "HgN/A
9:30 PM68 °FPassing clouds.3 mph30%29.89 "HgN/A
9:00 PM64 °FPassing clouds.3 mph43%29.89 "Hg6 mi
8:30 PM66 °FPassing clouds.3 mph40%29.89 "HgN/A
8:00 PM68 °FPassing clouds.No wind38%29.89 "Hg4 mi
7:30 PM70 °FPassing clouds.3 mph35%29.89 "HgN/A
7:00 PM73 °FPassing clouds.6 mph27%29.89 "HgN/A
6:30 PM73 °FPassing clouds.6 mph29%29.89 "Hg5 mi
6:00 PM75 °FPassing clouds.3 mph27%29.89 "Hg5 mi
5:30 PM77 °FPassing clouds.3 mph24%29.89 "Hg4 mi
5:00 PM79 °FPassing clouds.6 mph24%29.89 "Hg5 mi
4:30 PM82 °FSunny.6 mph19%29.89 "HgN/A
4:00 PM84 °FSunny.6 mph14%29.89 "HgN/A
3:30 PM86 °FSunny.6 mph14%29.89 "HgN/A
3:00 PM86 °FSunny.6 mph13%29.92 "HgN/A
2:30 PM86 °FSunny.6 mph13%29.92 "HgN/A
2:00 PM86 °FSunny.6 mph14%29.92 "HgN/A
1:30 PM84 °FPassing clouds.8 mph15%29.95 "HgN/A
1:00 PM84 °FPassing clouds.6 mph18%29.95 "HgN/A
12:30 PM82 °FPassing clouds.6 mph20%29.98 "HgN/A
12:00 PM81 °FPassing clouds.6 mph21%30.01 "HgN/A
11:30 AM81 °FPassing clouds.6 mph23%30.01 "HgN/A
11:00 AM79 °FPassing clouds.8 mph24%30.04 "HgN/A
10:30 AM77 °FSunny.8 mph24%30.04 "HgN/A
10:00 AM75 °FSunny.6 mph25%30.04 "HgN/A
9:30 AM73 °FPassing clouds.6 mph29%30.07 "HgN/A
9:00 AM70 °FPassing clouds.6 mph33%30.07 "HgN/A
Weather by CustomWeather, © 2014

See weather overviewHow to use our weather pages